Home   Weather   Fort Myers   Past weeks
Flag for USA

Past Weather in Fort Myers, Florida, USA — Yesterday and Last 2 Weeks

Now
83 °F

Sunny.


Feels Like: 89 °F
Forecast: 87 / 74 °F
Wind: 9 mph from West

Location: Page Field

Current Time: Jul 23, 2019 at 6:22:34 pm

Latest Report: Jul 23, 2019 at 4:53 pm


Visibility: 10 mi

Pressure: 29.94 "Hg

Humidity: 72%

Dew Point: 73 °F

Location of Fort MyersLocation

Past Weather in Fort Myers — Graph

°F

Fort Myers Temperature Yesterday

Maximum temperature yesterday: 89 °F (at 4:53 pm)
Minimum temperature yesterday: 73 °F (at 3:53 am)
Average temperature yesterday: 80 °F

High & Low Weather Summary for the Past Weeks

 TemperatureHumidityPressure
High95 °F (Jul 14, 5:10 pm)97% (Jul 12, 1:42 am)30.14 "Hg (Jul 12, 1:42 am)
Low71 °F (Jul 19, 5:24 pm)47% (Jul 14, 5:10 pm)29.91 "Hg (Jul 8, 7:53 pm)
Average81 °F79%30.04 "Hg
* Reported Jul 8 4:53 pm — Jul 23 4:17 pm, Fort Myers. Weather by CustomWeather, © 2019

Note: Actual official high and low records may vary slightly from our data, if they occured in-between our weather recording intervals... More about our weather records

Advertising

Fort Myers Weather History for the Previous 24 Hours

Scroll right to see more
 ConditionsComfort  
Time TempWeatherWind HumidityBarometerVisibility
4:17 pm
Tue, Jul 23
80 °FBroken clouds.3 mph81%29.95 "Hg10 mi
4:09 pm80 °FThundershowers. Partly sunny.3 mph79%29.96 "Hg10 mi
3:53 pm80 °FThunderstorms. Partly sunny.8 mph76%29.96 "Hg10 mi
3:37 pm83 °FThunderstorms. Sunny.8 mph77%29.96 "Hg10 mi
2:53 pm82 °FSunny.6 mph77%29.97 "Hg10 mi
2:08 pm83 °FPassing clouds.10 mph77%29.97 "Hg10 mi
1:53 pm82 °FThundershowers. Broken clouds.8 mph82%29.98 "Hg10 mi
1:23 pm79 °FLight rain. Broken clouds.8 mph77%29.99 "Hg4 mi
12:53 pm83 °FLight rain. Passing clouds.3 mph79%29.98 "Hg10 mi
12:44 pm82 °FThundershowers. Passing clouds.3 mph82%29.98 "Hg10 mi
12:21 pm80 °FScattered clouds.3 mph85%30.00 "Hg10 mi
11:53 am78 °FThundershowers. Fog.3 mph87%30.00 "Hg6 mi
11:35 am76 °FStrong thunderstorms. Fog.5 mph91%30.00 "Hg1 mi
11:12 am79 °FThunderstorms. Broken clouds.25 mph79%29.99 "Hg1 mi
10:53 am86 °FThundershowers. Broken clouds.6 mph67%29.99 "Hg10 mi
10:28 am85 °FThundershowers. Partly sunny.9 mph70%29.99 "Hg10 mi
9:53 am84 °FSunny.6 mph74%29.98 "Hg10 mi
9:19 am82 °FSunny.6 mph77%29.98 "Hg10 mi
8:53 am80 °FSunny.5 mph81%29.99 "Hg10 mi
7:53 am76 °FSunny.6 mph91%29.98 "Hg10 mi
6:53 am74 °FPassing clouds.5 mph94%29.97 "Hg10 mi
5:53 am74 °FPassing clouds.5 mph94%29.96 "Hg10 mi
4:53 am74 °FPassing clouds.5 mph94%29.96 "Hg10 mi
3:53 am75 °FPassing clouds.6 mph94%29.96 "Hg10 mi
2:53 am76 °FClear.No wind88%29.96 "Hg10 mi
1:53 am77 °FClear.No wind85%29.97 "Hg10 mi
12:53 am76 °FClear.3 mph88%29.98 "Hg10 mi
11:53 pm
Mon, Jul 22
77 °FClear.3 mph82%30.00 "Hg10 mi
10:53 pm77 °FClear.No wind82%30.00 "Hg10 mi
9:53 pm77 °FClear.3 mph82%30.00 "Hg10 mi
8:53 pm78 °FClear.6 mph79%30.01 "Hg10 mi
7:53 pm79 °FPassing clouds.8 mph77%30.00 "Hg10 mi
7:43 pm79 °FScattered clouds.12 mph77%29.99 "Hg10 mi
7:26 pm80 °FThundershowers. Mostly cloudy.16 mph74%30.00 "Hg10 mi
7:11 pm81 °FThunderstorms. Broken clouds.20 mph72%29.99 "Hg10 mi
6:53 pm86 °FThundershowers. Sunny.6 mph59%29.98 "Hg10 mi
Weather by CustomWeather, © 2019

See weather overview